Location: Newark
(46.9811°N, 5.3169°E)
Time: 12:35:29
(UTC+00:00)

ISS - Visible Passes

Search period start: 22 July 2019 00:00
Search period end: 01 August 2019 00:00
Orbit: 409 x 418 km, 51.6° (Epoch: 22 July)

Date Brightness Start Highest point End Pass type
(mag) Time Alt. Az. Time Alt. Az. Time Alt. Az.
22 Jul -2.4 20:59:28 10° W 21:02:39 40° N 21:05:51 10° ENE visible
22 Jul -2.4 22:36:37 10° WNW 22:39:47 39° N 22:41:12 25° ENE visible
23 Jul -1.3 00:13:20 10° WNW 00:14:00 15° WNW 00:14:00 15° WNW visible
23 Jul -2.7 20:10:00 10° W 20:13:15 49° NNW 20:16:32 10° ENE visible
23 Jul -2.2 21:47:15 10° WNW 21:50:22 36° N 21:53:12 12° ENE visible
23 Jul -2.3 23:24:01 10° WNW 23:25:59 32° WNW 23:25:59 32° WNW visible
24 Jul -2.2 20:57:49 10° WNW 21:00:56 35° N 21:04:03 10° ENE visible
24 Jul -3.3 22:34:43 10° WNW 22:38:01 56° NNE 22:38:03 56° NNE visible
25 Jul -2.2 20:08:20 10° WNW 20:11:29 37° N 20:14:38 10° ENE visible
25 Jul -2.8 21:45:23 10° WNW 21:48:37 44° NNE 21:50:10 25° ENE visible
25 Jul -1.3 23:22:06 10° WNW 23:22:58 17° WNW 23:22:58 17° WNW visible
26 Jul -2.4 20:56:00 10° WNW 20:59:10 38° N 21:02:20 10° ENE visible
26 Jul -2.9 22:32:44 10° WNW 22:35:08 44° WNW 22:35:08 44° WNW visible
27 Jul -2.3 20:06:35 10° WNW 20:09:42 35° N 20:12:49 10° ENE visible
27 Jul -3.7 21:43:23 10° WNW 21:46:43 71° NNE 21:47:20 54° E visible
28 Jul -3.1 20:54:02 10° WNW 20:57:19 52° NNE 20:59:32 18° E visible
28 Jul -1.8 22:30:50 10° WNW 22:32:21 22° W 22:32:21 22° W visible
29 Jul -2.7 20:04:38 10° WNW 20:07:52 42° NNE 20:11:04 10° E visible
29 Jul -3.7 21:41:22 10° WNW 21:44:35 58° SW 21:44:35 58° SW visible
30 Jul -3.9 20:51:57 10° WNW 20:55:18 88° SSW 20:56:51 29° ESE visible
30 Jul -1.0 22:29:24 10° W 22:29:40 11° W 22:29:40 11° W visible
31 Jul -3.5 20:02:34 10° WNW 20:05:53 65° NNE 20:09:09 10° ESE visible
31 Jul -2.3 21:39:32 10° W 21:41:58 25° SW 21:41:58 25° SW visible
